period_start,C,m1,H,J0,J1,J2,J3,J4,J5,JA,JB,JC,JD,JJ,JK,JN,#
2016-05-29 00:03:28,0.00,0.00,0.00,24.87,29.35,32.17,14.39,47.63,1014.67,2029.22,3542.82,3132.48,3555.98,599.99,591.21,1.81,0000 0000 0000 0000 000000
2016-05-29 00:08:30,0.00,0.00,0.00,24.89,29.33,32.11,14.36,47.44,1014.66,2029.19,3542.64,3132.33,3555.96,599.63,590.62,1.86,0000 0000 0000 0000 000000
2016-05-29 00:13:31,0.02,0.00,0.00,24.91,29.32,32.08,14.40,47.37,1014.66,2029.31,3542.16,3132.24,3555.93,600.21,591.21,1.91,0000 0000 0000 0000 000000
2016-05-29 00:18:32,0.02,0.00,0.00,24.89,29.32,32.10,14.37,47.33,1014.66,2029.63,3542.14,3132.33,3555.94,599.93,591.07,1.96,0000 0000 0000 0000 000000
2016-05-29 00:23:34,-0.01,0.00,0.00,24.91,29.30,32.07,14.45,47.61,1014.60,2029.56,3542.06,3132.20,3555.96,600.01,591.10,2.02,0000 0000 0000 0000 000000
2016-05-29 00:28:35,0.01,0.01,0.00,24.93,29.30,32.06,14.37,48.00,1014.34,2029.67,3542.06,3132.34,3555.95,599.75,590.61,2.07,0000 0000 0000 0000 000000
2016-05-29 00:33:36,0.01,0.01,0.00,24.94,29.29,32.04,14.45,47.61,1014.28,2029.89,3542.11,3132.66,3555.98,600.16,590.88,2.12,0000 0000 0000 0000 000000
2016-05-29 00:38:38,0.00,0.01,0.00,24.93,29.27,32.03,14.39,47.48,1014.19,2029.92,3542.04,3132.61,3555.98,600.19,590.99,2.17,0000 0000 0000 0000 000000
2016-05-29 00:43:39,-0.00,0.01,0.00,24.58,29.27,32.14,14.48,47.69,1014.20,2029.97,3542.09,3132.86,3555.98,600.45,591.87,2.22,0000 0000 0000 0000 000000
2016-05-29 00:48:40,0.00,0.01,0.00,24.26,29.25,32.28,14.42,47.77,1014.18,2029.99,3542.09,3132.96,3555.99,599.66,591.70,2.27,0000 0000 0000 0000 000000
2016-05-29 00:53:41,0.00,0.01,0.00,24.62,29.22,32.32,14.40,47.75,1014.18,2029.99,3542.12,3132.98,3555.99,600.21,591.50,2.32,0000 0000 0000 0000 000000
2016-05-29 00:58:42,0.00,0.01,0.00,24.78,29.21,32.34,14.43,47.63,1014.18,2029.99,3542.16,3132.99,3555.99,600.24,591.21,2.37,0000 0000 0000 0000 000000
2016-05-29 01:03:44,-0.00,0.01,0.00,24.86,29.20,32.28,14.39,47.52,1014.18,2029.99,3542.34,3132.99,3556.01,599.61,590.47,2.42,0000 0000 0000 0000 000000
2016-05-29 01:08:45,0.00,0.01,0.00,24.92,29.20,32.09,14.32,47.50,1014.18,2029.99,3542.30,3132.99,3556.01,599.42,590.24,2.47,0000 0000 0000 0000 000000
2016-05-29 01:13:46,0.00,0.01,0.00,24.94,29.18,31.99,14.43,47.47,1014.18,2030.00,3542.20,3132.99,3556.00,599.99,590.70,2.52,0000 0000 0000 0000 000000
2016-05-29 01:18:47,0.00,0.01,0.00,24.95,29.17,31.93,14.39,47.52,1014.18,2030.00,3542.09,3132.98,3556.01,600.09,590.72,2.57,0000 0000 0000 0000 000000
2016-05-29 01:23:48,0.00,0.01,0.00,24.98,29.17,31.89,14.39,47.88,1014.18,2030.00,3542.13,3132.99,3556.00,600.19,590.88,2.62,0000 0000 0000 0000 000000
2016-05-29 01:28:49,0.00,0.01,0.00,25.01,29.15,31.91,14.37,48.18,1014.18,2030.00,3542.03,3132.99,3556.00,599.91,590.54,2.67,0000 0000 0000 0000 000000
2016-05-29 01:33:51,-0.00,0.01,0.00,25.01,29.15,31.91,14.31,47.67,1014.18,2030.01,3542.09,3132.99,3556.02,600.03,590.80,2.72,0000 0000 0000 0000 000000
2016-05-29 01:38:52,-0.00,0.01,0.00,25.00,29.15,31.87,14.43,47.73,1014.18,2030.02,3542.23,3132.99,3556.03,600.26,590.81,2.77,0000 0000 0000 0000 000000
2016-05-29 01:43:53,0.00,0.01,0.00,25.02,29.13,31.87,14.34,47.80,1014.18,2030.02,3542.15,3132.99,3556.02,599.92,590.50,2.82,0000 0000 0000 0000 000000
2016-05-29 01:48:54,0.00,0.01,0.00,25.05,29.12,31.87,14.32,47.67,1014.18,2030.03,3542.17,3132.99,3556.04,600.07,590.66,2.87,0000 0000 0000 0000 000000
2016-05-29 01:53:56,0.00,0.01,0.00,25.04,29.12,31.84,14.39,47.79,1014.18,2030.03,3542.05,3132.99,3556.01,599.96,590.47,2.92,0000 0000 0000 0000 000000
2016-05-29 01:58:57,-0.00,0.01,0.00,25.04,29.12,31.85,14.33,47.66,1014.18,2030.03,3542.04,3132.99,3556.02,600.20,590.78,2.97,0000 0000 0000 0000 000000
2016-05-29 02:03:58,0.00,0.01,0.00,25.06,29.10,31.86,14.36,48.38,1014.09,2030.04,3542.00,3132.99,3556.01,600.20,590.58,3.02,0000 0000 0000 0000 000000
2016-05-29 02:09:00,0.01,0.01,0.00,25.10,29.10,31.84,14.38,48.40,1014.08,2030.09,3542.00,3132.99,3556.02,600.22,590.53,3.07,0000 0000 0000 0000 000000
2016-05-29 02:14:01,0.00,0.01,0.00,25.08,29.09,31.82,14.40,48.31,1013.86,2030.21,3542.00,3132.99,3556.06,600.28,590.36,3.12,0000 0000 0000 0000 000000
2016-05-29 02:19:02,0.00,0.01,0.00,25.10,29.07,31.82,14.38,48.17,1013.78,2030.20,3542.00,3132.99,3556.03,600.10,590.32,3.17,0000 0000 0000 0000 000000
2016-05-29 02:24:03,0.00,0.01,0.00,25.11,29.07,31.82,14.35,48.08,1013.93,2030.30,3542.00,3132.99,3556.02,600.29,590.65,3.22,0000 0000 0000 0000 000000
2016-05-29 02:29:05,0.03,0.01,0.00,25.08,29.07,31.81,14.40,48.09,1014.04,2030.54,3542.01,3133.01,3556.07,600.15,590.52,3.27,0000 0000 0000 0000 000000
2016-05-29 02:34:05,0.01,0.01,0.00,25.10,29.05,31.80,14.41,48.04,1013.88,2030.73,3542.00,3133.00,3556.09,600.25,590.43,3.32,0000 0000 0000 0000 000000
2016-05-29 02:39:07,0.00,0.01,0.00,25.11,29.05,31.81,14.43,47.83,1014.02,2030.75,3542.01,3133.01,3556.16,599.88,590.21,3.37,0000 0000 0000 0000 000000
2016-05-29 02:44:08,0.00,0.01,0.00,25.12,29.05,31.81,14.38,47.70,1013.97,2030.91,3542.04,3133.02,3556.46,599.98,590.29,3.42,0000 0000 0000 0000 000000
2016-05-29 02:49:09,0.01,0.01,0.00,25.11,29.05,31.78,14.38,47.61,1013.86,2030.93,3542.00,3133.02,3556.24,599.94,590.27,3.47,0000 0000 0000 0000 000000
2016-05-29 02:54:10,0.00,0.01,0.00,25.14,29.05,31.77,14.34,47.69,1013.78,2030.93,3542.00,3133.02,3556.32,600.36,590.47,3.52,0000 0000 0000 0000 000000
2016-05-29 02:59:11,0.00,0.01,0.00,25.14,29.03,31.79,14.30,47.59,1013.70,2030.94,3542.01,3133.03,3556.30,599.87,590.01,3.57,0000 0000 0000 0000 000000
2016-05-29 03:04:13,-0.00,0.01,0.00,25.12,29.02,31.79,14.31,48.26,1013.69,2030.98,3542.00,3133.03,3556.38,600.04,590.17,3.62,0000 0000 0000 0000 000000
2016-05-29 03:09:14,0.00,0.01,0.00,25.12,29.02,31.78,14.30,48.08,1013.69,2030.96,3542.00,3133.02,3556.24,599.84,590.04,3.67,0000 0000 0000 0000 000000
2016-05-29 03:14:15,0.00,0.01,0.00,24.91,29.02,31.91,14.34,47.88,1013.69,2030.97,3542.00,3133.03,3556.20,599.92,590.42,3.72,0000 0000 0000 0000 000000
2016-05-29 03:19:16,-0.00,0.01,0.00,24.59,29.01,32.13,14.43,47.77,1013.69,2030.98,3542.00,3133.05,3556.41,599.93,591.03,3.77,0000 0000 0000 0000 000000
2016-05-29 03:24:18,-0.01,0.01,0.00,24.43,29.00,32.01,14.44,47.72,1013.68,2030.98,3542.00,3133.11,3556.65,600.13,591.55,3.82,0000 0000 0000 0000 000000
2016-05-29 03:29:19,-0.02,0.01,0.00,24.48,28.97,31.86,14.45,47.59,1013.52,2030.99,3542.01,3133.67,3556.96,600.00,591.13,3.87,0000 0000 0000 0000 000000
2016-05-29 03:34:20,-0.00,0.01,0.00,24.55,28.95,31.66,14.48,47.68,1013.24,2030.99,3542.03,3133.96,3556.99,600.20,591.15,3.92,0000 0000 0000 0000 000000
2016-05-29 03:39:22,0.00,0.01,0.00,24.53,28.92,31.64,14.39,47.57,1013.28,2031.01,3542.07,3133.99,3556.99,599.94,590.93,3.97,0000 0000 0000 0000 000000
2016-05-29 03:44:23,0.00,0.01,0.00,24.52,28.89,31.55,14.35,47.66,1013.25,2031.05,3542.25,3133.99,3557.01,599.84,590.89,4.02,0000 0000 0000 0000 000000
2016-05-29 03:49:24,0.01,0.01,0.00,24.60,28.86,31.45,14.36,47.66,1013.22,2031.15,3542.48,3134.00,3557.04,599.86,590.76,4.07,0000 0000 0000 0000 000000
2016-05-29 03:54:25,0.03,0.01,0.00,24.65,28.83,31.48,14.39,48.13,1013.20,2031.51,3542.74,3134.00,3557.25,600.34,591.01,4.12,0000 0000 0000 0000 000000
2016-05-29 03:59:26,0.01,0.01,0.00,24.70,28.80,31.45,14.32,48.39,1013.20,2031.78,3542.64,3134.01,3557.51,600.00,590.71,4.17,0000 0000 0000 0000 000000
2016-05-29 04:04:28,-0.00,0.01,0.00,24.75,28.77,31.37,14.36,48.35,1013.18,2031.94,3542.73,3134.05,3557.79,599.81,590.40,4.22,0000 0000 0000 0000 000000
2016-05-29 04:09:29,-0.01,0.01,0.00,24.78,28.75,31.36,14.33,47.98,1013.15,2031.99,3542.88,3134.38,3557.98,599.84,590.38,4.27,0000 0000 0000 0000 000000
2016-05-29 04:14:30,-0.00,0.01,0.00,24.78,28.72,31.39,14.31,47.80,1013.10,2031.99,3542.98,3134.88,3557.99,599.98,590.40,4.32,0000 0000 0000 0000 000000
2016-05-29 04:19:31,-0.00,0.01,0.00,24.81,28.71,31.38,14.36,47.75,1012.93,2031.99,3542.98,3134.89,3557.99,600.02,590.10,4.37,0000 0000 0000 0000 000000
2016-05-29 04:24:32,0.00,0.01,0.00,24.88,28.70,31.41,14.41,47.78,1012.79,2031.99,3542.99,3134.95,3557.99,599.90,589.92,4.42,0000 0000 0000 0000 000000
2016-05-29 04:29:33,0.00,0.01,0.00,24.92,28.68,31.46,14.33,47.79,1013.07,2031.99,3542.99,3134.98,3557.99,599.88,589.99,4.47,0000 0000 0000 0000 000000
2016-05-29 04:34:35,0.00,0.01,0.00,24.94,28.67,31.42,14.34,47.67,1012.97,2032.00,3542.99,3134.98,3557.99,599.81,589.80,4.53,0000 0000 0000 0000 000000
2016-05-29 04:39:36,0.00,0.01,0.00,24.96,28.67,31.51,14.30,47.73,1012.89,2032.00,3542.99,3134.98,3558.00,599.91,589.83,4.58,0000 0000 0000 0000 000000
2016-05-29 04:44:38,0.00,0.01,0.00,24.98,28.67,31.46,14.31,47.68,1012.97,2032.01,3542.99,3134.97,3558.01,599.73,589.76,4.63,0000 0000 0000 0000 000000
2016-05-29 04:49:39,-0.00,0.01,0.00,25.03,28.66,31.54,14.37,47.71,1012.81,2032.00,3542.99,3134.98,3558.00,600.11,589.89,4.68,0000 0000 0000 0000 000000
2016-05-29 04:54:40,0.00,0.01,0.00,25.06,28.66,31.52,14.31,47.60,1012.73,2032.00,3542.98,3134.96,3558.00,600.10,589.64,4.73,0000 0000 0000 0000 000000
2016-05-29 04:59:42,0.00,0.01,0.00,25.07,28.67,31.55,14.33,47.76,1012.75,2032.00,3542.97,3134.94,3558.00,599.77,589.39,4.78,0000 0000 0000 0000 000000
2016-05-29 05:04:43,0.00,0.01,0.00,25.08,28.67,31.53,14.30,47.79,1012.73,2032.01,3542.93,3134.91,3557.99,600.15,589.77,4.83,0000 0000 0000 0000 000000
2016-05-29 05:09:44,0.01,0.01,0.00,25.08,28.67,31.52,14.35,47.74,1012.71,2032.02,3542.83,3134.82,3557.97,599.96,589.61,4.88,0000 0000 0000 0000 000000
2016-05-29 05:14:46,-0.00,0.01,0.00,25.12,28.67,31.57,14.33,47.72,1012.71,2032.01,3542.68,3134.71,3557.97,600.01,589.68,4.93,0000 0000 0000 0000 000000
2016-05-29 05:19:47,0.02,0.01,0.00,25.14,28.69,31.63,14.37,47.73,1012.71,2032.01,3542.15,3134.34,3557.94,599.95,589.38,4.98,0000 0000 0000 0000 000000
2016-05-29 05:24:48,0.01,0.01,0.00,25.17,28.70,31.69,14.33,47.75,1012.73,2032.01,3542.01,3134.09,3557.50,600.27,589.71,5.03,0000 0000 0000 0000 000000
2016-05-29 05:29:49,0.01,0.01,0.00,25.17,28.70,31.64,14.38,47.68,1012.71,2032.01,3541.96,3134.01,3557.06,600.54,589.93,5.08,0000 0000 0000 0000 000000
2016-05-29 05:34:51,0.01,0.01,0.00,25.19,28.70,31.64,14.30,48.17,1012.71,2032.00,3541.30,3134.00,3557.00,599.87,589.32,5.13,0000 0000 0000 0000 000000
2016-05-29 05:39:52,0.00,0.01,0.00,25.23,28.70,31.66,14.32,47.64,1012.71,2032.00,3541.02,3133.98,3557.00,599.64,588.97,5.18,0000 0000 0000 0000 000000
2016-05-29 05:44:53,0.00,0.01,0.00,25.22,28.71,31.73,14.30,47.61,1012.71,2032.00,3541.00,3133.97,3556.98,599.62,588.95,5.23,0000 0000 0000 0000 000000
2016-05-29 05:49:54,0.00,0.01,0.00,25.26,28.72,31.77,14.29,47.56,1012.71,2032.00,3541.00,3133.93,3556.95,599.94,589.29,5.28,0000 0000 0000 0000 000000
2016-05-29 05:54:55,0.00,0.01,0.00,25.27,28.72,31.79,14.22,47.52,1012.71,2032.00,3541.00,3133.84,3556.94,599.76,589.02,5.33,0000 0000 0000 0000 000000
2016-05-29 05:59:57,0.01,0.01,0.00,25.25,28.72,31.79,14.25,47.58,1012.71,2032.00,3540.95,3133.60,3556.72,599.90,589.26,5.38,0000 0000 0000 0000 000000
2016-05-29 06:04:58,0.03,0.02,0.00,25.31,28.72,31.86,14.40,47.64,1012.71,2032.00,3540.49,3133.12,3556.18,600.19,589.40,5.43,0000 0000 0000 0000 000000
2016-05-29 06:09:59,0.00,0.02,0.00,25.33,28.74,31.89,14.36,47.64,1012.71,2032.00,3540.03,3133.01,3556.01,599.99,589.18,5.48,0000 0000 0000 0000 000000
2016-05-29 06:15:00,0.00,0.02,0.00,25.35,28.75,31.89,14.34,47.67,1012.70,2032.00,3540.00,3133.00,3556.00,600.02,589.23,5.53,0000 0000 0000 0000 000000
2016-05-29 06:20:02,0.00,0.02,0.00,25.32,28.75,31.78,14.25,47.55,1012.67,2032.00,3540.00,3133.00,3556.00,600.28,589.35,5.58,0000 0000 0000 0000 000000
2016-05-29 06:25:03,0.00,0.02,0.00,25.33,28.76,31.93,14.35,47.61,1012.70,2032.00,3540.00,3133.00,3555.99,599.96,589.03,5.63,0000 0000 0000 0000 000000
2016-05-29 06:30:03,0.00,0.02,0.00,25.36,28.77,31.93,14.38,47.92,1012.70,2032.00,3539.96,3132.99,3555.98,600.43,589.52,5.68,0000 0000 0000 0000 000000
2016-05-29 06:35:05,0.01,0.02,0.00,25.38,28.77,31.96,14.23,48.05,1012.62,2032.00,3539.55,3132.96,3555.90,599.81,588.80,5.73,0000 0000 0000 0000 000000
2016-05-29 06:40:06,0.01,0.02,0.00,25.39,28.77,31.97,14.25,47.85,1012.67,2031.99,3539.08,3132.85,3555.52,599.29,588.29,5.78,0000 0000 0000 0000 000000
2016-05-29 06:45:07,0.02,0.02,0.00,25.40,28.79,31.91,14.29,47.64,1012.69,2031.98,3539.00,3132.32,3555.06,599.88,588.79,5.83,0000 0000 0000 0000 000000
2016-05-29 06:50:09,0.00,0.02,0.00,25.43,28.80,31.99,14.25,47.63,1012.70,2031.97,3538.99,3132.09,3555.01,599.78,588.71,5.88,0000 0000 0000 0000 000000
2016-05-29 06:55:10,-0.00,0.02,0.00,25.45,28.80,32.03,14.31,47.72,1012.71,2031.96,3538.97,3132.02,3555.00,599.69,588.63,5.93,0000 0000 0000 0000 000000
2016-05-29 07:00:11,0.00,0.02,0.00,25.43,28.80,32.02,14.28,47.63,1012.71,2031.94,3538.77,3132.00,3555.00,600.05,588.93,5.98,0000 0000 0000 0000 000000
2016-05-29 07:05:12,0.00,0.02,0.00,25.47,28.82,32.00,14.24,47.58,1012.71,2031.92,3538.27,3132.00,3554.99,599.52,588.32,6.03,0000 0000 0000 0000 000000
2016-05-29 07:10:13,0.00,0.02,0.00,25.48,28.82,31.98,14.32,47.58,1012.71,2031.95,3538.09,3131.99,3554.95,600.02,588.89,6.08,0000 0000 0000 0000 000000
2016-05-29 07:15:15,-0.00,0.02,0.00,25.50,28.83,31.98,14.29,47.56,1012.70,2031.80,3538.00,3131.95,3554.42,599.92,588.70,6.13,0000 0000 0000 0000 000000
2016-05-29 07:20:16,0.01,0.02,0.00,25.50,28.85,31.98,14.30,47.64,1012.63,2031.86,3538.00,3131.93,3554.13,599.76,588.52,6.18,0000 0000 0000 0000 000000
2016-05-29 07:25:17,-0.00,0.02,0.00,25.52,28.86,32.01,14.35,47.58,1012.61,2031.72,3537.94,3131.45,3554.01,600.06,588.70,6.23,0000 0000 0000 0000 000000
2016-05-29 07:30:18,-0.01,0.02,0.00,25.56,28.87,31.96,14.32,47.66,1012.68,2031.34,3537.32,3131.03,3554.00,600.29,588.75,6.28,0000 0000 0000 0000 000000
2016-05-29 07:35:20,-0.02,0.02,0.00,25.58,28.90,32.04,14.27,47.67,1012.66,2031.18,3537.05,3131.00,3553.92,599.82,588.50,6.33,0000 0000 0000 0000 000000
2016-05-29 07:40:21,0.01,0.02,0.00,25.60,28.92,32.12,14.35,47.84,1012.68,2031.07,3537.00,3130.98,3553.39,600.46,589.10,6.38,0000 0000 0000 0000 000000
2016-05-29 07:45:22,0.00,0.02,0.00,25.65,28.94,32.16,14.27,47.64,1012.71,2031.03,3536.89,3130.86,3553.03,599.82,588.25,6.43,0000 0000 0000 0000 000000
2016-05-29 07:50:24,0.03,0.02,0.00,25.62,28.96,32.21,14.40,47.92,1012.71,2031.02,3536.25,3130.15,3553.00,600.39,588.98,6.48,0000 0000 0000 0000 000000
2016-05-29 07:55:25,0.01,0.02,0.00,25.59,28.99,32.21,14.36,48.02,1012.71,2031.01,3536.01,3130.00,3552.81,600.06,588.63,6.53,0000 0000 0000 0000 000000
2016-05-29 08:00:26,0.01,0.02,0.00,25.59,29.02,32.26,14.36,47.73,1012.71,2031.00,3535.99,3130.00,3552.16,600.32,588.90,6.58,0000 0000 0000 0000 000000
2016-05-29 08:05:27,0.00,0.02,0.00,25.53,29.05,32.24,14.33,47.74,1012.71,2030.99,3535.86,3129.91,3552.00,600.18,588.78,6.63,0000 0000 0000 0000 000000
2016-05-29 08:10:28,0.03,0.02,0.00,25.50,29.08,32.17,14.37,47.78,1012.71,2030.99,3535.14,3129.23,3551.97,600.05,588.85,6.68,0000 0000 0000 0000 000000
2016-05-29 08:15:30,0.00,0.02,0.00,25.58,29.11,32.20,14.39,47.76,1012.71,2030.95,3535.00,3129.01,3551.58,600.19,588.78,6.73,0000 0000 0000 0000 000000
2016-05-29 08:20:31,-0.01,0.02,0.00,25.64,29.13,32.29,14.23,47.81,1012.69,2030.84,3534.95,3129.00,3551.04,599.64,588.20,6.78,0000 0000 0000 0000 000000
2016-05-29 08:25:32,-0.03,0.02,0.00,25.68,29.15,32.28,14.36,47.81,1012.70,2030.28,3534.27,3128.83,3550.96,599.99,588.42,6.83,0000 0000 0000 0000 000000
2016-05-29 08:30:33,0.01,0.02,0.00,25.74,29.17,32.33,14.28,47.85,1012.71,2030.04,3534.00,3128.10,3550.25,599.92,588.19,6.88,0000 0000 0000 0000 000000
2016-05-29 08:35:35,0.00,0.02,0.00,25.81,29.20,32.34,14.25,47.97,1012.71,2030.00,3533.76,3128.00,3550.00,599.85,588.01,6.94,0000 0000 0000 0000 000000
2016-05-29 08:40:36,0.01,0.02,0.00,25.89,29.22,32.37,14.25,47.85,1012.71,2030.00,3533.14,3127.98,3549.98,599.90,587.83,6.99,0000 0000 0000 0000 000000
2016-05-29 08:45:37,0.03,0.02,0.00,25.95,29.24,32.40,14.27,47.84,1012.71,2030.00,3532.95,3127.42,3549.34,600.08,587.99,7.04,0000 0000 0000 0000 000000
2016-05-29 08:50:39,0.01,0.03,0.00,25.99,29.26,32.42,14.28,47.74,1012.71,2029.99,3532.33,3127.02,3549.01,600.07,587.88,7.09,0000 0000 0000 0000 000000
2016-05-29 08:55:40,0.00,0.03,0.00,26.05,29.28,32.48,14.33,47.77,1012.70,2029.98,3532.02,3126.99,3548.96,600.14,587.77,7.14,0000 0000 0000 0000 000000
2016-05-29 09:00:41,0.01,0.03,0.00,26.09,29.30,32.54,14.20,47.77,1012.71,2029.85,3531.79,3126.67,3548.26,599.95,587.55,7.19,0000 0000 0000 0000 000000
2016-05-29 09:05:42,0.01,0.03,0.00,26.15,29.32,32.59,14.34,47.63,1012.71,2029.74,3531.09,3126.13,3548.00,600.24,587.71,7.24,0000 0000 0000 0000 000000
2016-05-29 09:10:44,-0.04,0.03,0.00,26.21,29.35,32.63,14.35,47.68,1012.71,2029.32,3530.97,3126.00,3547.97,600.07,587.38,7.29,0000 0000 0000 0000 000000
2016-05-29 09:15:45,0.01,0.03,0.00,26.27,29.37,32.64,14.26,47.65,1012.71,2029.20,3530.34,3125.99,3547.45,600.01,587.18,7.34,0000 0000 0000 0000 000000
2016-05-29 09:20:46,0.01,0.03,0.00,26.31,29.39,32.69,14.31,47.72,1012.71,2029.04,3530.00,3125.48,3547.04,600.43,587.66,7.39,0000 0000 0000 0000 000000
2016-05-29 09:25:48,0.01,0.03,0.00,26.32,29.41,32.69,14.27,47.63,1012.71,2029.01,3529.79,3125.03,3546.92,599.97,587.13,7.44,0000 0000 0000 0000 000000
2016-05-29 09:30:49,0.02,0.03,0.00,26.35,29.44,32.78,14.23,47.58,1012.71,2029.00,3529.04,3124.97,3546.16,599.86,586.97,7.49,0000 0000 0000 0000 000000
2016-05-29 09:35:51,0.02,0.03,0.00,26.34,29.46,32.77,14.26,47.54,1012.71,2029.00,3528.89,3124.62,3546.01,599.89,587.15,7.54,0000 0000 0000 0000 000000
2016-05-29 09:40:52,0.01,0.03,0.00,26.33,29.49,32.77,14.21,47.58,1012.71,2028.99,3528.15,3124.03,3545.91,599.70,586.83,7.59,0000 0000 0000 0000 000000
2016-05-29 09:45:53,0.01,0.03,0.00,26.34,29.51,32.76,14.28,47.48,1012.71,2028.97,3527.99,3124.00,3545.22,600.03,587.08,7.64,0000 0000 0000 0000 000000
2016-05-29 09:50:54,-0.00,0.03,0.00,26.34,29.54,32.80,14.28,47.53,1012.71,2028.82,3527.55,3123.83,3545.00,599.89,587.09,7.69,0000 0000 0000 0000 000000
2016-05-29 09:55:56,-0.01,0.03,0.00,26.34,29.56,32.75,14.21,47.58,1012.71,2028.43,3527.02,3123.16,3544.84,599.91,587.11,7.74,0000 0000 0000 0000 000000
2016-05-29 10:00:57,-0.00,0.03,0.00,26.34,29.58,32.79,14.31,47.73,1012.71,2028.13,3526.95,3123.00,3544.10,600.21,587.31,7.79,0000 0000 0000 0000 000000
2016-05-29 10:05:58,0.01,0.03,0.00,26.36,29.60,32.70,14.25,47.55,1012.71,2028.05,3526.30,3122.99,3544.00,600.06,587.09,7.84,0000 0000 0000 0000 000000
2016-05-29 10:10:59,0.01,0.03,0.00,26.35,29.62,32.84,14.27,47.44,1012.71,2028.02,3526.01,3122.75,3543.95,600.09,587.19,7.89,0000 0000 0000 0000 000000
2016-05-29 10:16:01,0.03,0.03,0.00,26.36,29.65,32.92,14.24,47.54,1012.69,2028.00,3525.95,3122.11,3543.34,600.18,587.38,7.94,0000 0000 0000 0000 000000
2016-05-29 10:21:02,0.01,0.03,0.00,26.38,29.67,32.84,14.17,47.49,1012.64,2028.00,3525.48,3122.01,3543.02,599.51,586.51,7.99,0000 0000 0000 0000 000000
2016-05-29 10:26:03,0.00,0.03,0.00,26.41,29.69,32.95,14.21,47.50,1012.42,2028.00,3525.01,3121.97,3542.93,599.73,586.62,8.04,0000 0000 0000 0000 000000
2016-05-29 10:31:04,0.02,0.03,0.00,26.46,29.71,33.02,14.23,47.62,1012.63,2027.98,3524.93,3121.54,3542.35,600.08,586.91,8.09,0000 0000 0000 0000 000000
2016-05-29 10:36:06,0.01,0.04,0.00,26.47,29.72,32.99,14.26,47.56,1012.65,2027.92,3524.26,3121.04,3542.02,600.09,587.06,8.14,0000 0000 0000 0000 000000
2016-05-29 10:41:07,-0.03,0.04,0.00,26.49,29.75,32.94,14.28,47.66,1012.57,2027.69,3524.00,3121.00,3541.97,599.92,586.63,8.19,0000 0000 0000 0000 000000
2016-05-29 10:46:08,-0.01,0.03,0.00,26.52,29.76,32.93,14.27,47.50,1012.67,2027.37,3523.92,3120.96,3541.60,600.42,587.21,8.24,0000 0000 0000 0000 000000
2016-05-29 10:51:10,0.01,0.03,0.00,26.54,29.77,33.03,14.24,47.51,1012.66,2027.28,3523.50,3120.84,3541.16,600.04,586.66,8.29,0000 0000 0000 0000 000000
2016-05-29 10:56:11,0.01,0.03,0.00,26.57,29.78,33.08,14.24,47.58,1012.55,2027.06,3523.03,3120.19,3541.01,600.21,586.63,8.34,0000 0000 0000 0000 000000
2016-05-29 11:01:12,0.00,0.03,0.00,26.58,29.80,33.06,14.23,47.51,1012.60,2027.02,3522.99,3120.01,3540.98,599.97,586.58,8.39,0000 0000 0000 0000 000000
2016-05-29 11:06:13,0.01,0.03,0.00,26.58,29.81,32.93,14.18,47.48,1012.27,2027.01,3522.56,3120.00,3540.76,599.58,585.98,8.44,0000 0000 0000 0000 000000
2016-05-29 11:11:14,0.01,0.04,0.00,26.57,29.82,32.96,14.22,47.36,1012.27,2027.00,3522.04,3119.99,3540.19,599.69,586.11,8.49,0000 0000 0000 0000 000000
2016-05-29 11:16:15,0.00,0.04,0.00,26.55,29.82,32.98,14.22,47.42,1012.30,2027.00,3521.99,3119.89,3540.01,599.84,586.26,8.54,0000 0000 0000 0000 000000
2016-05-29 11:21:17,0.02,0.04,0.00,26.57,29.82,32.94,14.20,47.39,1012.56,2027.00,3521.73,3119.40,3539.99,599.60,586.24,8.59,0000 0000 0000 0000 000000
2016-05-29 11:26:18,0.05,0.04,0.00,26.58,29.84,33.04,14.33,47.33,1012.68,2027.00,3520.45,3118.67,3539.23,600.35,586.99,8.64,0000 0000 0000 0000 000000
2016-05-29 11:31:20,0.06,0.04,0.00,26.58,29.85,33.03,14.29,47.38,1012.70,2027.00,3518.97,3117.73,3538.07,600.25,586.91,8.69,0000 0000 0000 0000 000000
2016-05-29 11:36:21,0.06,0.05,0.00,26.58,29.85,33.06,14.20,47.42,1012.67,2026.98,3517.52,3116.76,3537.03,599.99,586.60,8.74,0000 0000 0000 0000 000000
2016-05-29 11:41:22,0.02,0.05,0.00,26.57,29.86,33.01,14.20,47.35,1012.44,2026.99,3516.98,3116.03,3536.23,600.26,586.80,8.79,0000 0000 0000 0000 000000
2016-05-29 11:46:23,0.01,0.05,0.00,26.57,29.87,32.88,14.24,47.35,1012.26,2026.98,3516.58,3116.00,3536.01,600.02,586.37,8.84,0000 0000 0000 0000 000000
2016-05-29 11:51:25,0.00,0.05,0.00,26.58,29.88,33.02,14.24,47.33,1012.41,2026.99,3516.09,3116.00,3536.00,599.78,586.31,8.89,0000 0000 0000 0000 000000
2016-05-29 11:56:26,0.00,0.05,0.00,26.60,29.90,33.04,14.23,47.42,1012.58,2026.98,3516.01,3115.98,3535.99,600.00,586.51,8.94,0000 0000 0000 0000 000000
2016-05-29 12:01:27,-0.00,0.05,0.00,26.60,29.90,33.07,14.32,47.38,1012.64,2026.95,3516.00,3115.88,3535.94,600.15,586.64,8.99,0000 0000 0000 0000 000000
2016-05-29 12:06:29,0.02,0.05,0.00,26.57,29.90,33.03,14.22,47.43,1012.67,2026.87,3515.81,3115.34,3535.46,599.75,586.46,9.04,0000 0000 0000 0000 000000
2016-05-29 12:11:30,0.02,0.05,0.00,26.57,29.92,33.06,14.24,47.39,1012.71,2026.86,3515.16,3115.04,3535.07,599.98,586.69,9.09,0000 0000 0000 0000 000000
2016-05-29 12:16:31,0.01,0.05,0.00,26.56,29.92,33.02,14.29,47.38,1012.68,2026.78,3514.58,3114.81,3534.73,599.92,586.62,9.14,0000 0000 0000 0000 000000
2016-05-29 12:21:32,0.05,0.05,0.00,26.67,29.92,33.12,14.31,47.38,1012.58,2026.64,3513.32,3113.98,3533.82,600.34,586.66,9.19,0000 0000 0000 0000 000000
2016-05-29 12:26:34,0.02,0.06,0.00,26.79,29.95,33.25,14.22,47.40,1012.70,2026.49,3512.06,3113.09,3532.80,599.94,586.17,9.25,0000 0000 0000 0000 000000
2016-05-29 12:31:35,0.03,0.06,0.00,26.82,29.95,33.29,14.29,47.39,1012.67,2026.18,3510.83,3112.24,3531.95,600.13,586.28,9.30,0000 0000 0000 0000 000000
2016-05-29 12:36:36,0.04,0.06,0.00,26.85,29.97,33.32,14.17,47.39,1012.71,2026.10,3509.79,3111.53,3531.08,599.61,585.78,9.35,0000 0000 0000 0000 000000
2016-05-29 12:41:37,0.03,0.06,0.00,26.86,29.98,33.27,14.19,47.47,1012.70,2026.05,3508.78,3110.95,3530.36,599.96,586.09,9.40,0000 0000 0000 0000 000000
2016-05-29 12:46:39,0.04,0.06,0.00,26.89,30.00,33.33,14.27,47.57,1012.65,2026.00,3507.81,3110.19,3529.64,600.07,586.06,9.45,0000 0000 0000 0000 000000
2016-05-29 12:51:40,0.06,0.07,0.00,26.90,30.02,33.31,14.25,47.48,1012.50,2026.01,3506.57,3109.35,3528.71,599.82,585.65,9.50,0000 0000 0000 0000 000000
2016-05-29 12:56:41,0.07,0.07,0.00,26.91,30.04,33.34,14.24,47.35,1012.43,2026.00,3504.87,3108.30,3527.50,600.28,586.12,9.55,0000 0000 0000 0000 000000
2016-05-29 13:01:42,0.06,0.07,0.00,26.91,30.06,33.45,14.18,47.34,1012.23,2026.00,3503.32,3107.27,3526.34,600.02,585.76,9.60,0000 0000 0000 0000 000000